| time (UTC) | temp C | wind direction | speed KPH | gust KPH | rain 1hr cm | rain 24hr cm | rain mn cm | humidity % | barometer mb |
| 20260505123902 | 22 | 112 | 0.0 | 3.2 | 0.00 | 0.00 | 0.00 | 44 | |
| 20260505122406 | 23 | 67 | 3.2 | 12.9 | 0.00 | 0.00 | 0.00 | 41 | |
| 20260505120902 | 25 | 45 | 4.8 | 14.5 | 0.00 | 0.00 | 0.00 | 39 | |
| 20260505115403 | 23 | 45 | 6.4 | 19.3 | 0.00 | 0.00 | 0.00 | 40 | |
| 20260505113902 | 23 | 247 | 3.2 | 9.7 | 0.00 | 0.00 | 0.00 | 41 | |
| 20260505112402 | 23 | 225 | 3.2 | 12.9 | 0.00 | 0.00 | 0.00 | 43 | |
| 20260505110901 | 23 | 225 | 3.2 | 11.3 | 0.00 | 0.00 | 0.00 | 45 | |
| 20260505100902 | 21 | 112 | 1.6 | 8.0 | 0.00 | 0.00 | 0.00 | 49 | |
| 20260505095403 | 21 | 225 | 1.6 | 8.0 | 0.00 | 0.00 | 0.00 | 49 | |
| 20260505093902 | 21 | 225 | 1.6 | 6.4 | 0.00 | 0.00 | 0.00 | 50 | |
| 20260505092404 | 21 | 225 | 3.2 | 6.4 | 0.00 | 0.00 | 0.00 | 48 | |
| 20260505090902 | 21 | 225 | 3.2 | 9.7 | 0.00 | 0.00 | 0.00 | 49 | |
| 20260505085402 | 21 | 225 | 1.6 | 8.0 | 0.00 | 0.00 | 0.00 | 49 | |
| 20260505083902 | 21 | 67 | 1.6 | 4.8 | 0.00 | 0.00 | 0.00 | 46 | |
| 20260505082402 | 21 | 247 | 0.0 | 3.2 | 0.00 | 0.00 | 0.00 | 48 | |
| 20260505080901 | 21 | 225 | 0.0 | 1.6 | 0.00 | 0.00 | 0.00 | 48 | |
| 20260505075403 | 21 | 225 | 0.0 | 1.6 | 0.00 | 0.00 | 0.00 | 50 | |
| 20260505073902 | 20 | 0 | 0.0 | 3.2 | 0.00 | 0.00 | 0.00 | 48 | |
| 20260505072403 | 20 | 0 | 0.0 | 1.6 | 0.00 | 0.00 | 0.00 | 49 | |
| 20260505070901 | 20 | 0 | 0.0 | 1.6 | 0.00 | 0.00 | 0.00 | 51 | |
| 20260505065402 | 19 | 90 | 3.2 | 6.4 | 0.00 | 0.00 | 0.00 | 48 | |
| 20260505063901 | 18 | 112 | 1.6 | 4.8 | 0.00 | 0.00 | 0.00 | 48 | |
| 20260505062403 | 19 | 112 | 1.6 | 4.8 | 0.00 | 0.00 | 0.00 | 52 | |
| 20260505060904 | 18 | 112 | 1.6 | 6.4 | 0.00 | 0.00 | 0.00 | 52 | |
| 20260505055402 | 18 | 112 | 1.6 | 4.8 | 0.00 | 0.00 | 0.00 | 51 | |
| 20260505053908 | 18 | 45 | 0.0 | 1.6 | 0.00 | 0.00 | 0.00 | 52 | |
| 20260505052402 | 15 | 112 | 1.6 | 3.2 | 0.00 | 0.00 | 0.00 | 57 | |
| 20260505050902 | 14 | 112 | 3.2 | 4.8 | 0.00 | 0.00 | 0.00 | 62 | |
| 20260505040902 | 8 | 270 | 0.0 | 0.0 | 0.00 | 0.00 | 0.00 | 72 | |
| 20260505035401 | 8 | 270 | 0.0 | 1.6 | 0.00 | 0.00 | 0.00 | 72 | |
| 20260505033901 | 9 | 45 | 0.0 | 0.0 | 0.00 | 0.00 | 0.00 | 70 | |
| 20260505032401 | 9 | 45 | 0.0 | 0.0 | 0.00 | 0.00 | 0.00 | 68 | |
| 20260505030901 | 10 | 45 | 0.0 | 3.2 | 0.00 | 0.00 | 0.00 | 67 | |
| 20260505025403 | 9 | 67 | 0.0 | 0.0 | 0.00 | 0.00 | 0.00 | 68 | |
| 20260505023902 | 10 | 90 | 3.2 | 6.4 | 0.00 | 0.00 | 0.00 | 69 | |
| 20260505020902 | 8 | 90 | 0.0 | 0.0 | 0.00 | 0.00 | 0.00 | 72 | |
| 20260505015403 | 8 | 90 | 1.6 | 3.2 | 0.00 | 0.00 | 0.00 | 71 | |
| 20260505013901 | 8 | 90 | 0.0 | 3.2 | 0.00 | 0.00 | 0.00 | 71 | |
| 20260505012402 | 8 | 67 | 0.0 | 0.0 | 0.00 | 0.00 | 0.00 | 70 | |
| 20260505010901 | 8 | 67 | 0.0 | 3.2 | 0.00 | 0.00 | 0.00 | 69 | |
| 20260505005402 | 8 | 90 | 0.0 | 3.2 | 0.00 | 0.00 | 0.00 | 70 | |
| 20260505003902 | 8 | 90 | 0.0 | 0.0 | 0.00 | 0.00 | 0.00 | 70 | |
| 20260505002402 | 9 | 90 | 0.0 | 3.2 | 0.00 | 0.00 | 0.00 | 69 | |
| 20260505000902 | 10 | 225 | 0.0 | 1.6 | 0.00 | 0.00 | 0.00 | 67 | |
| 20260504235404 | 10 | 225 | 0.0 | 0.0 | 0.00 | 0.00 | 0.00 | 67 | |
| 20260504233902 | 10 | 225 | 0.0 | 1.6 | 0.00 | 0.00 | 0.00 | 66 | |
| 20260504232402 | 11 | 225 | 0.0 | 0.0 | 0.00 | 0.00 | 0.00 | 64 | |
| 20260504230902 | 11 | 225 | 0.0 | 0.0 | 0.00 | 0.00 | 0.00 | 64 | |
| 20260504225402 | 11 | 225 | 0.0 | 0.0 | 0.00 | 0.00 | 0.00 | 62 | |
| 20260504223902 | 11 | 225 | 0.0 | 0.0 | 0.00 | 0.00 | 0.00 | 62 | |
| 20260504222402 | 12 | 225 | 0.0 | 1.6 | 0.00 | 0.00 | 0.00 | 57 | |
| 20260504220902 | 13 | 67 | 0.0 | 1.6 | 0.00 | 0.00 | 0.00 | 56 | |
| 20260504215402 | 13 | 67 | 0.0 | 1.6 | 0.00 | 0.00 | 0.00 | 53 | |
| 20260504213908 | 13 | 67 | 0.0 | 3.2 | 0.00 | 0.00 | 0.00 | 51 | |
| 20260504212402 | 14 | 67 | 1.6 | 6.4 | 0.00 | 0.00 | 0.00 | 51 | |
| 20260504210901 | 14 | 67 | 3.2 | 8.0 | 0.00 | 0.00 | 0.00 | 50 | |
| 20260504205402 | 15 | 90 | 4.8 | 9.7 | 0.00 | 0.00 | 0.00 | 50 | |
| 20260504203902 | 15 | 67 | 3.2 | 8.0 | 0.00 | 0.00 | 0.00 | 49 | |
| 20260504202402 | 15 | 67 | 3.2 | 8.0 | 0.00 | 0.00 | 0.00 | 48 | |
| 20260504200903 | 15 | 22 | 4.8 | 9.7 | 0.00 | 0.00 | 0.00 | 48 | |
| 20260504195403 | 15 | 22 | 3.2 | 9.7 | 0.00 | 0.00 | 0.00 | 49 | |
| 20260504193902 | 15 | 45 | 3.2 | 8.0 | 0.00 | 0.00 | 0.00 | 49 | |
| 20260504192403 | 16 | 67 | 4.8 | 9.7 | 0.00 | 0.00 | 0.00 | 49 | |
| 20260504190902 | 16 | 67 | 3.2 | 6.4 | 0.00 | 0.00 | 0.00 | 48 | |
| 20260504185408 | 16 | 45 | 3.2 | 9.7 | 0.00 | 0.00 | 0.00 | 48 | |
| 20260504183902 | 16 | 67 | 3.2 | 6.4 | 0.00 | 0.00 | 0.00 | 48 | |
| 20260504182402 | 17 | 22 | 1.6 | 6.4 | 0.00 | 0.00 | 0.00 | 47 | |
| 20260504180902 | 18 | 45 | 1.6 | 6.4 | 0.00 | 0.00 | 0.00 | 47 | |
| 20260504175402 | 18 | 45 | 1.6 | 4.8 | 0.00 | 0.00 | 0.00 | 48 | |
| 20260504173901 | 19 | 22 | 3.2 | 9.7 | 0.00 | 0.00 | 0.00 | 48 | |
| 20260504172402 | 20 | 45 | 3.2 | 12.9 | 0.00 | 0.00 | 0.00 | 47 | |
| 20260504170902 | 20 | 45 | 1.6 | 4.8 | 0.00 | 0.00 | 0.00 | 47 | |
| 20260504150903 | 21 | 90 | 6.4 | 12.9 | 0.00 | 0.00 | 0.00 | 40 | |
| 20260504140902 | 24 | 202 | 1.6 | 3.2 | 0.00 | 0.00 | 0.00 | 40 |